Location: Unspecified
(0.0000°N, 0.0000°E)
Time: 06:33:30
(UTC+00:00)

Vanguard 1 Rocket - Pass Details

Date: 27 November 2019
Orbit: 650 x 4226 km, 34.3° (Epoch: 10 December)

Event Time Altitude Azimuth Distance (km) Brightness Sun altitude
Rises 09:15:35 0° 301° (WNW) 3,906 10.2 47.3°
Reaches altitude 10° 09:17:44 10° 299° (WNW) 3,210 9.9 47.8°
Maximum altitude 09:25:56 74° 215° (SW) 1,949 9.9 49.5°
Drops below altitude 10° 09:42:49 10° 131° (SE) 6,146 12.4 53.0°
Sets 09:48:47 0° 129° (SE) 7,660 12.7 54.1°
